Location: New Greens
(51.7702°N, 0.3379°W)
Time: 08:27:59
(UTC+00:00)

OTV 5 (USA 277) - Visible Passes

Search period start: 19 January 2019 00:00
Search period end: 29 January 2019 00:00
Orbit: 339 x 349 km, 54.5° (Epoch: 15 January)

Date Brightness Start Highest point End Pass type
(mag) Time Alt. Az. Time Alt. Az. Time Alt. Az.
25 Jan ? 06:31:35 10° SSE 06:32:43 12° SE 06:33:50 10° ESE visible
26 Jan ? 06:53:31 10° SSW 06:56:02 26° SE 06:58:34 10° E visible
27 Jan ? 05:44:11 10° SSE 05:45:10 11° SE 05:46:08 10° ESE visible
28 Jan ? 06:05:59 10° SSW 06:08:29 25° SE 06:10:59 10° E visible
